Location: Thompson
(55.7500°N, 97.8670°W)
Time: 15:33:11
(UTC-06:00)

Amateur Radio Satellites - All Passes

Search period start: 30 January 2015 15:03
Search period end: 31 January 2015 15:03
Location: Thompson, 55.7500°N, 97.8670°W

Satellite Date Start Highest point End Downlink Frequencies (MHz)
Time Altitude Azimuth
Cubesat XI-IV 30 Jan 15:06:30 15:08:06 11° 39° (NE) 15:09:52 437.490
GONETS M04 30 Jan 15:06:52 15:12:55 21° 288° (WNW) 15:18:40
CUSAT 1 30 Jan 15:07:59 15:14:58 86° 72° (ENE) 15:20:09 437.405
SWISSCUBE 30 Jan 15:12:12 15:16:48 47° 295° (WNW) 15:21:23 437.505
SPROUT 30 Jan 15:16:05 15:17:56 12° 311° (NW) 15:19:39 437.525
STARS 30 Jan 15:16:44 15:20:59 41° 98° (E) 15:25:13 437.465
AO-7 30 Jan 15:21:35 15:30:00 86° 248° (WSW) 15:38:27 29.400- 29.500
CUTE-I 30 Jan 15:24:43 15:27:23 14° 43° (NE) 15:30:11 437.470
M-CUBED/EXP-1 PRIME 30 Jan 15:25:41 15:27:27 14° 96° (E) 15:29:19 437.505
KKS-1 30 Jan 15:26:04 15:30:36 69° 103° (ESE) 15:35:05 437.445
BEESAT 30 Jan 15:27:51 15:32:18 39° 297° (WNW) 15:36:42 436.000
ITUPSAT 1 30 Jan 15:32:38 15:37:03 36° 298° (WNW) 15:41:25 437.325
Gurwin Techsat 1B 30 Jan 15:34:39 15:38:43 21° 273° (W) 15:42:41 435.225
JAS-2 30 Jan 15:39:44 15:44:55 57° 67° (ENE) 15:50:02 435.910
AUBIESAT-1 30 Jan 15:56:59 15:59:48 25° 102° (ESE) 16:02:39 437.475
RS-15 30 Jan 16:00:02 16:08:48 26° 256° (WSW) 16:17:27 29.354- 29.394
HO-68 30 Jan 16:00:27 16:02:11 11° 13° (NNE) 16:03:59 435.675
SO-50 30 Jan 16:09:26 16:13:53 34° 17° (NNE) 16:18:25 436.795
O/OREOS (USA 219) 30 Jan 16:22:20 16:26:25 35° 111° (ESE) 16:30:36 437.305
HORYU 2 30 Jan 16:24:25 16:27:22 17° 274° (W) 16:30:11 437.375
DANDE 30 Jan 16:29:39 16:36:07 36° 274° (W) 16:41:08 436.750
Cubesat XI-IV 30 Jan 16:42:03 16:46:56 39° 61° (ENE) 16:51:54 437.490
SWISSCUBE 30 Jan 16:51:52 16:53:42 12° 315° (NW) 16:55:23 437.505
CUSAT 1 30 Jan 16:52:01 16:56:56 22° 282° (WNW) 17:00:53 437.405
STARS 30 Jan 16:53:23 16:57:26 34° 298° (WNW) 17:01:26 437.465
M-CUBED/EXP-1 PRIME 30 Jan 16:59:36 17:02:55 64° 296° (WNW) 17:06:15 437.505
CUTE-I 30 Jan 17:01:17 17:06:25 50° 64° (ENE) 17:11:37 437.470
KKS-1 30 Jan 17:03:19 17:06:54 23° 303° (WNW) 17:10:23 437.445
BEESAT 30 Jan 17:08:37 17:09:02 10° 318° (NW) 17:09:17 436.000
MOZHAYETS 4 30 Jan 17:15:14 17:19:39 47° 99° (E) 17:24:06
AO-7 30 Jan 17:17:08 17:24:06 27° 272° (W) 17:30:52 29.400- 29.500
JAS-2 30 Jan 17:25:57 17:30:31 28° 268° (W) 17:34:56 435.910
AUBIESAT-1 30 Jan 17:31:49 17:34:52 34° 301° (WNW) 17:37:56 437.475
CUBESAT XI-V 30 Jan 17:37:31 17:37:54 10° 79° (E) 17:38:33 437.345
HO-68 30 Jan 17:42:20 17:47:24 22° 39° (NE) 17:52:36 435.675
SO-50 30 Jan 17:50:08 17:55:03 80° 40° (NE) 18:00:00 436.795
O/OREOS (USA 219) 30 Jan 18:01:26 18:05:48 45° 312° (NW) 18:10:13 437.305
STRAND 1 30 Jan 18:17:44 18:21:05 18° 85° (E) 18:24:34 437.568
Cubesat XI-IV 30 Jan 18:21:51 18:27:01 48° 261° (W) 18:32:12 437.490
YUBILEINY 30 Jan 18:22:04 18:28:34 25° 76° (ENE) 18:35:20 435.215
GOMX 1 30 Jan 18:23:34 18:26:55 17° 48° (NE) 18:30:27 467.674
DOVE 4 30 Jan 18:29:15 18:32:06 15° 47° (NE) 18:35:06 437.250
BRITE-PL 30 Jan 18:34:44 18:38:58 25° 54° (NE) 18:43:29 437.365/2234.400
SEEDS 30 Jan 18:35:55 18:37:49 13° 51° (NE) 18:39:52 437.485
M-CUBED/EXP-1 PRIME 30 Jan 18:36:31 18:37:21 11° 315° (NW) 18:38:06 437.505
PRISM 30 Jan 18:36:43 18:40:32 34° 97° (E) 18:44:23 437.425
CUTE-I 30 Jan 18:41:50 18:46:44 35° 265° (W) 18:51:38 437.470
MOZHAYETS 4 30 Jan 18:52:44 18:56:47 31° 299° (WNW) 19:00:47
COMPASS 1 30 Jan 18:59:19 19:01:58 17° 55° (NE) 19:04:42 437.405
CUBEBUG 2 30 Jan 19:08:14 19:09:41 11° 46° (NE) 19:11:18 437.445
CUBESAT XI-V 30 Jan 19:11:51 19:16:30 58° 100° (E) 19:21:10 437.345
DX 1 30 Jan 19:14:35 19:15:16 10° 45° (NE) 19:16:06 434.975-435.025
CANX-2 30 Jan 19:17:00 19:20:43 30° 62° (ENE) 19:24:29 2200.000
FUNcube-1 30 Jan 19:21:22 19:21:53 10° 45° (NE) 19:22:35 145.935
AAUSAT CUBESAT 2 30 Jan 19:23:39 19:26:55 23° 59° (ENE) 19:30:14 437.432
HO-68 30 Jan 19:26:58 19:33:57 60° 62° (ENE) 19:40:59 435.675
SO-50 30 Jan 19:31:07 19:35:16 27° 240° (WSW) 19:39:20 436.795
CINEMA 3 30 Jan 19:40:07 19:44:14 26° 58° (ENE) 19:48:26 145.822/145.860
CUTE 1.7 + AOD 2 30 Jan 19:40:31 19:44:34 42° 66° (ENE) 19:48:38 437.475
UWE-3 30 Jan 19:43:07 19:46:02 17° 52° (NE) 19:49:02 435.000/436.395/437.385
O/OREOS (USA 219) 30 Jan 19:43:36 19:46:25 16° 336° (NNW) 19:49:11 437.305
Oscar 11 30 Jan 19:48:22 19:51:44 23° 58° (ENE) 19:55:09 145.826/435.025
STRAND 1 30 Jan 19:55:56 20:01:08 86° 107° (ESE) 20:06:19 437.568
GOMX 1 30 Jan 19:58:55 20:04:07 64° 70° (ENE) 20:09:35 467.674
DOVE 4 30 Jan 20:03:48 20:08:51 55° 68° (ENE) 20:14:06 437.250
SEEDS 30 Jan 20:08:44 20:12:57 64° 71° (ENE) 20:17:10 437.485
BRITE-PL 30 Jan 20:11:36 20:16:54 85° 255° (WSW) 20:22:35 437.365/2234.400
VELOX 1 30 Jan 20:12:14 20:14:26 14° 49° (NE) 20:16:47 145.980
PRISM 30 Jan 20:12:17 20:16:06 36° 297° (WNW) 20:19:54 437.425
YUBILEINY 30 Jan 20:15:35 20:24:17 83° 99° (E) 20:33:04 435.215
UKube-1 30 Jan 20:24:09 20:27:54 29° 61° (ENE) 20:31:43 .
AIST 1 30 Jan 20:32:52 20:34:35 12° 52° (NE) 20:36:28
COMPASS 1 30 Jan 20:32:56 20:37:11 89° 76° (ENE) 20:41:26 437.405
HUMSAT D 30 Jan 20:33:12 20:36:19 20° 57° (ENE) 20:39:32 437.325/437.525
CUBEBUG 2 30 Jan 20:40:50 20:45:23 45° 66° (ENE) 20:49:58 437.445
ZACube-1 30 Jan 20:41:41 20:45:52 35° 63° (ENE) 20:50:04 437.345
DELFI C3 30 Jan 20:44:11 20:48:07 48° 68° (ENE) 20:52:04 145.870
DX 1 30 Jan 20:46:25 20:50:34 44° 65° (ENE) 20:54:47 434.975-435.025
CUBESAT XI-V 30 Jan 20:49:44 20:53:44 28° 300° (WNW) 20:57:40 437.345
CANX-2 30 Jan 20:52:26 20:56:34 45° 262° (W) 21:00:42 2200.000
FUNcube-1 30 Jan 20:52:53 20:57:13 42° 65° (ENE) 21:01:34 145.935
AAUSAT CUBESAT 2 30 Jan 20:58:06 21:02:17 61° 258° (WSW) 21:06:28 437.432
HO-68 30 Jan 21:15:20 21:22:02 41° 264° (W) 21:28:45 435.675
CINEMA 3 30 Jan 21:16:04 21:21:05 70° 258° (WSW) 21:26:10 145.822/145.860
CUTE 1.7 + AOD 2 30 Jan 21:16:49 21:20:39 30° 266° (W) 21:24:27 437.475
UWE-3 30 Jan 21:17:13 21:21:56 75° 71° (ENE) 21:26:38 435.000/436.395/437.385
AISAT 30 Jan 21:18:47 21:22:56 39° 64° (ENE) 21:27:11 437.250
Oscar 11 30 Jan 21:23:15 21:27:35 66° 258° (WSW) 21:31:56 145.826/435.025
O/OREOS (USA 219) 30 Jan 21:26:50 21:27:48 11° 1° (N) 21:28:47 437.305
ESTCUBE 1 30 Jan 21:27:31 21:31:12 26° 59° (ENE) 21:34:58 437.505/2401.250
50 SAT 30 Jan 21:28:42 21:32:34 40° 66° (ENE) 21:36:28 437.505
SPROUT 30 Jan 21:32:17 21:32:55 10° 47° (NE) 21:33:42 437.525
STRAND 1 30 Jan 21:35:50 21:39:49 23° 307° (NW) 21:43:44 437.568
GOMX 1 30 Jan 21:38:07 21:42:41 28° 271° (W) 21:47:22 467.674
DOVE 4 30 Jan 21:42:15 21:46:55 32° 269° (W) 21:51:41 437.250
VELOX 1 30 Jan 21:45:52 21:50:16 63° 69° (ENE) 21:54:44 145.980
SEEDS 30 Jan 21:46:00 21:49:13 20° 271° (W) 21:52:22 437.485
CUBEBUG 1 30 Jan 21:49:39 21:53:35 34° 63° (ENE) 21:57:35 437.445
BRITE-PL 30 Jan 21:52:35 21:56:22 19° 278° (W) 22:00:08 437.365/2234.400
UKube-1 30 Jan 21:59:44 22:03:56 47° 260° (W) 22:08:11 .
TISAT 1 30 Jan 22:01:20 22:03:56 16° 53° (NE) 22:06:37 437.305
HUMSAT D 30 Jan 22:07:19 22:11:42 78° 256° (WSW) 22:16:05 437.325/437.525
AIST 1 30 Jan 22:08:56 22:13:16 63° 74° (ENE) 22:17:36
COMPASS 1 30 Jan 22:11:10 22:13:36 14° 275° (W) 22:15:53 437.405
POPSAT HIP 1 30 Jan 22:14:27 22:16:06 12° 83° (E) 22:17:55 437.405
YUBILEINY 30 Jan 22:14:27 22:22:15 34° 306° (NW) 22:29:58 435.215
DUCHIFAT 1 30 Jan 22:16:01 22:17:45 12° 83° (E) 22:19:39 145.980
UNISAT 6 30 Jan 22:17:13 22:20:30 20° 88° (E) 22:23:48 437.425
ZACube-1 30 Jan 22:17:47 22:22:12 42° 263° (W) 22:26:36 437.345
CUBEBUG 2 30 Jan 22:17:51 22:22:14 34° 266° (W) 22:26:36 437.445
DELFI C3 30 Jan 22:20:13 22:23:37 24° 268° (W) 22:26:57 145.870
DX 1 30 Jan 22:23:07 22:27:00 30° 266° (W) 22:30:53 434.975-435.025
FUNcube-1 30 Jan 22:29:26 22:33:41 35° 265° (W) 22:37:54 145.935
NANOSAT C BR1 30 Jan 22:49:48 22:53:18 24° 91° (E) 22:56:49 145.865
ANTELSAT 30 Jan 22:52:51 22:57:04 38° 96° (E) 23:01:12 437.575/2403.000
UWE-3 30 Jan 22:55:29 22:59:01 20° 273° (W) 23:02:29 435.000/436.395/437.385
AISAT 30 Jan 22:55:31 22:59:39 35° 264° (W) 23:03:49 437.250
CINEMA 3 30 Jan 22:56:38 22:59:19 14° 279° (W) 23:01:48 145.822/145.860
TIGRISAT 30 Jan 22:59:32 23:03:50 42° 97° (E) 23:08:02 435.000
ESTCUBE 1 30 Jan 23:03:23 23:07:50 59° 259° (WSW) 23:12:18 437.505/2401.250
Oscar 11 30 Jan 23:03:35 23:04:44 11° 279° (W) 23:05:42 145.826/435.025
SPROUT 30 Jan 23:03:57 23:08:05 46° 67° (ENE) 23:12:17 437.525
50 SAT 30 Jan 23:04:06 23:07:48 30° 266° (W) 23:11:29 437.505
QB50P2 30 Jan 23:04:56 23:08:50 32° 95° (E) 23:12:43 145.880/145.840
O/OREOS (USA 219) 30 Jan 23:06:14 23:09:10 17° 26° (NNE) 23:12:09 437.305
SWISSCUBE 30 Jan 23:12:40 23:15:54 19° 52° (NE) 23:19:13 437.505
QB50P1 30 Jan 23:13:34 23:17:37 37° 96° (E) 23:21:38 145.935-145.965
BUGSAT 1 30 Jan 23:16:15 23:20:07 32° 95° (E) 23:24:00 437.445
VELOX 1 30 Jan 23:23:46 23:27:17 22° 270° (W) 23:30:47 145.980
CUBEBUG 1 30 Jan 23:25:48 23:29:56 40° 263° (W) 23:34:07 437.445
ISS 30 Jan 23:26:18 23:29:10 28° 161° (SSE) 23:32:04 145.825
BEESAT 30 Jan 23:27:39 23:31:14 22° 55° (NE) 23:34:54 436.000
POLYITAN 1 30 Jan 23:29:28 23:33:44 51° 100° (E) 23:37:57 437.675
ITUPSAT 1 30 Jan 23:32:31 23:36:12 23° 55° (NE) 23:39:59 437.325
TISAT 1 30 Jan 23:34:54 23:39:10 82° 73° (ENE) 23:43:29 437.305
HUMSAT D 30 Jan 23:46:14 23:48:19 13° 277° (W) 23:50:14 437.325/437.525
AIST 1 30 Jan 23:47:21 23:50:34 20° 274° (W) 23:53:42
POPSAT HIP 1 30 Jan 23:48:31 23:52:53 74° 104° (ESE) 23:57:11 437.405
DUCHIFAT 1 30 Jan 23:50:07 23:54:28 76° 104° (ESE) 23:58:46 145.980
UNISAT 6 30 Jan 23:53:20 23:57:51 69° 289° (WNW) 00:02:13 437.425
YUBILEINY 31 Jan 00:18:29 00:22:43 14° 336° (NNW) 00:26:44 435.215
GONETS M04 31 Jan 00:23:56 00:31:11 32° 80° (E) 00:38:34
NANOSAT C BR1 31 Jan 00:25:16 00:29:31 55° 292° (WNW) 00:33:43 145.865
ANTELSAT 31 Jan 00:29:45 00:33:54 36° 297° (WNW) 00:37:55 437.575/2403.000
Oscar 19 31 Jan 00:35:06 00:37:14 13° 80° (E) 00:39:35 437.125/150
TIGRISAT 31 Jan 00:36:28 00:40:33 33° 298° (WNW) 00:44:29 435.000
SPROUT 31 Jan 00:40:35 00:44:23 29° 267° (W) 00:48:11 437.525
QB50P2 31 Jan 00:40:47 00:44:52 41° 295° (WNW) 00:48:54 145.880/145.840
O/OREOS (USA 219) 31 Jan 00:45:12 00:49:42 49° 50° (NE) 00:54:11 437.305
STARS 31 Jan 00:46:27 00:49:30 19° 54° (NE) 00:52:39 437.465
M-CUBED/EXP-1 PRIME 31 Jan 00:48:12 00:50:09 14° 49° (NE) 00:52:08 437.505
SWISSCUBE 31 Jan 00:48:24 00:53:11 83° 70° (ENE) 00:58:00 437.505
QB50P1 31 Jan 00:49:33 00:53:31 35° 296° (WNW) 00:57:26 145.935-145.965
BUGSAT 1 31 Jan 00:51:41 00:55:43 40° 295° (WNW) 00:59:45 437.445
KKS-1 31 Jan 00:55:57 00:59:45 28° 59° (ENE) 01:03:38 437.445
ISS 31 Jan 01:02:07 01:05:15 40° 181° (S) 01:08:22 145.825
BEESAT 31 Jan 01:03:52 01:08:39 80° 255° (WSW) 01:13:28 436.000
POLYITAN 1 31 Jan 01:05:47 01:09:29 27° 300° (WNW) 01:13:07 437.675
ITUPSAT 1 31 Jan 01:08:56 01:13:43 75° 256° (WSW) 01:18:32 437.325
TISAT 1 31 Jan 01:12:54 01:15:38 16° 274° (W) 01:18:16 437.305
AUBIESAT-1 31 Jan 01:18:49 01:21:39 22° 54° (NE) 01:24:25 437.475
POPSAT HIP 1 31 Jan 01:25:08 01:28:23 21° 303° (WNW) 01:31:32 437.405
DUCHIFAT 1 31 Jan 01:26:42 01:29:54 20° 304° (NW) 01:33:01 145.980
UNISAT 6 31 Jan 01:31:21 01:33:55 15° 310° (NW) 01:36:21 437.425
Gurwin Techsat 1B 31 Jan 02:01:55 02:05:38 19° 86° (E) 02:09:28 435.225
NANOSAT C BR1 31 Jan 02:02:52 02:04:34 12° 311° (NW) 02:06:08 145.865
BEESAT 2 31 Jan 02:12:14 02:15:22 21° 119° (ESE) 02:18:35 435.950
Oscar 19 31 Jan 02:12:35 02:17:45 64° 102° (ESE) 02:22:52 437.125/150
GONETS M04 31 Jan 02:18:29 02:27:17 82° 283° (WNW) 02:36:04
AIST 2 31 Jan 02:19:21 02:21:16 13° 113° (ESE) 02:23:21 435.215
M-CUBED/EXP-1 PRIME 31 Jan 02:20:56 02:24:45 83° 67° (ENE) 02:28:18 437.505
STARS 31 Jan 02:20:59 02:25:28 89° 253° (WSW) 02:30:00 437.465
YUBILEINY 31 Jan 02:22:30 02:24:44 11° 10° (N) 02:27:07 435.215
BEESAT 3 31 Jan 02:23:54 02:27:25 28° 122° (ESE) 02:31:02 437.485
O/OREOS (USA 219) 31 Jan 02:24:53 02:29:01 32° 251° (WSW) 02:33:05 437.305
DANDE 31 Jan 02:25:30 02:29:48 15° 72° (ENE) 02:34:24 436.750
SWISSCUBE 31 Jan 02:28:24 02:31:44 18° 273° (W) 02:34:58 437.505
KKS-1 31 Jan 02:31:47 02:36:12 54° 259° (W) 02:40:40 437.445
HORYU 2 31 Jan 02:32:23 02:32:48 10° 81° (E) 02:33:26 437.375
ITAMSAT 1 31 Jan 02:32:52 02:37:48 40° 97° (E) 02:42:44 435.822/435.867
ISS 31 Jan 02:38:29 02:41:18 26° 200° (SSW) 02:44:07 145.825
CUSAT 1 31 Jan 02:42:38 02:48:20 21° 78° (ENE) 02:54:06 437.405
BEESAT 31 Jan 02:44:37 02:47:22 15° 276° (W) 02:49:59 436.000
MOZHAYETS 4 31 Jan 02:49:00 02:52:21 21° 56° (NE) 02:55:47
ITUPSAT 1 31 Jan 02:50:03 02:52:34 14° 277° (W) 02:54:53 437.325
AUBIESAT-1 31 Jan 02:52:44 02:56:26 53° 251° (WSW) 02:59:54 437.475
PCSat 31 Jan 03:12:54 03:14:20 11° 103° (ESE) 03:16:04 145.827
AO-7 31 Jan 03:15:26 03:21:12 21° 82° (E) 03:27:15 29.400- 29.500
Gurwin Techsat 1B 31 Jan 03:41:03 03:46:26 89° 288° (WNW) 03:51:47 435.225
BEESAT 2 31 Jan 03:48:59 03:53:10 82° 318° (NW) 03:57:25 435.950
Oscar 19 31 Jan 03:52:24 03:56:49 29° 303° (WNW) 04:01:09 437.125/150
AIST 2 31 Jan 03:54:55 03:59:10 64° 132° (SE) 04:03:27 435.215
M-CUBED/EXP-1 PRIME 31 Jan 03:58:20 04:00:14 13° 265° (W) 04:01:59 437.505
STARS 31 Jan 03:59:57 04:02:41 15° 275° (W) 04:05:18 437.465
BEESAT 3 31 Jan 04:01:11 04:05:19 65° 323° (NW) 04:09:30 437.485
PRISM 31 Jan 04:01:32 04:03:36 14° 51° (NE) 04:05:48 437.425
DANDE 31 Jan 04:03:34 04:11:43 50° 92° (E) 04:19:41 436.750
STRAND 1 31 Jan 04:04:51 04:07:19 14° 44° (NE) 04:09:56 437.568
HORYU 2 31 Jan 04:06:05 04:10:32 61° 102° (ESE) 04:14:56 437.375
ITAMSAT 1 31 Jan 04:12:27 04:17:24 44° 297° (WNW) 04:22:20 435.822/435.867
GONETS M04 31 Jan 04:18:19 04:25:42 28° 311° (NW) 04:32:56
YUBILEINY 31 Jan 04:19:28 04:26:02 23° 43° (NE) 04:32:49 435.215
RS-15 31 Jan 04:20:53 04:29:57 33° 109° (ESE) 04:39:22 29.354- 29.394
CUSAT 1 31 Jan 04:21:57 04:30:19 67° 98° (E) 04:38:14 437.405
JAS-2 31 Jan 04:24:25 04:29:03 26° 91° (E) 04:34:11 435.910
MOZHAYETS 4 31 Jan 04:24:33 04:29:09 80° 256° (WSW) 04:33:45
CUBESAT XI-V 31 Jan 04:46:37 04:50:18 24° 58° (ENE) 04:54:04 437.345
PCSat 31 Jan 04:51:28 04:56:41 51° 123° (ESE) 05:01:58 145.827
AO-7 31 Jan 05:07:23 05:15:46 71° 107° (ESE) 05:24:04 29.400- 29.500
CUTE-I 31 Jan 05:13:01 05:14:15 11° 78° (ENE) 05:15:46 437.470
Gurwin Techsat 1B 31 Jan 05:21:46 05:25:51 22° 308° (NW) 05:29:50 435.225
BEESAT 2 31 Jan 05:28:11 05:31:55 30° 341° (NNW) 05:35:40 435.950
AIST 2 31 Jan 05:33:59 05:38:03 38° 334° (NNW) 05:42:08 435.215
PRISM 31 Jan 05:34:24 05:38:30 72° 71° (ENE) 05:42:37 437.425
BEESAT 3 31 Jan 05:40:31 05:44:08 27° 346° (NNW) 05:47:44 437.485
STRAND 1 31 Jan 05:40:36 05:45:32 51° 65° (ENE) 05:50:32 437.568
HORYU 2 31 Jan 05:43:16 05:46:56 25° 302° (WNW) 05:50:31 437.375
DANDE 31 Jan 05:46:39 05:55:13 60° 293° (WNW) 06:03:23 436.750
ITAMSAT 1 31 Jan 05:53:36 05:55:47 12° 318° (NW) 05:57:48 435.822/435.867
MOZHAYETS 4 31 Jan 06:04:45 06:07:14 14° 277° (W) 06:09:33
CUSAT 1 31 Jan 06:05:44 06:13:50 45° 299° (WNW) 06:21:18 437.405
JAS-2 31 Jan 06:09:13 06:14:42 71° 291° (WNW) 06:20:49 435.910
YUBILEINY 31 Jan 06:16:16 06:25:01 65° 71° (ENE) 06:33:47 435.215
CUBESAT XI-V 31 Jan 06:22:50 06:27:25 66° 258° (WSW) 06:32:04 437.345
GONETS M04 31 Jan 06:23:13 06:26:34 12° 342° (NNW) 06:29:42
RS-15 31 Jan 06:30:06 06:41:02 85° 134° (SE) 06:52:15 29.354- 29.394
Cubesat XI-IV 31 Jan 06:31:07 06:36:11 40° 96° (E) 06:41:16 437.490
PCSat 31 Jan 06:34:57 06:40:14 49° 325° (NW) 06:45:32 145.827
CUTE-I 31 Jan 06:50:25 06:55:43 54° 100° (E) 07:01:00 437.470
AO-7 31 Jan 07:00:31 07:08:17 43° 310° (NW) 07:15:55 29.400- 29.500
BEESAT 2 31 Jan 07:07:44 07:11:11 24° 5° (N) 07:14:40 435.950
PRISM 31 Jan 07:11:43 07:14:33 17° 272° (W) 07:17:17 437.425
AIST 2 31 Jan 07:14:03 07:17:38 24° 357° (N) 07:21:13 435.215
BEESAT 3 31 Jan 07:19:51 07:23:21 25° 9° (N) 07:26:50 437.485
STRAND 1 31 Jan 07:20:23 07:25:00 33° 266° (W) 07:29:37 437.568
DANDE 31 Jan 07:33:46 07:40:29 23° 317° (NW) 07:46:38 436.750
UNISAT 6 31 Jan 07:50:31 07:51:40 11° 46° (NE) 07:52:58 437.425
CUSAT 1 31 Jan 07:53:39 07:59:02 18° 323° (NW) 08:03:52 437.405
GOMX 1 31 Jan 07:54:58 07:57:35 14° 78° (ENE) 08:00:23 467.674
JAS-2 31 Jan 07:55:24 07:59:10 19° 311° (NW) 08:03:01 435.910
DOVE 4 31 Jan 07:58:51 07:59:18 10° 75° (ENE) 08:00:03 437.250
CUBESAT XI-V 31 Jan 08:04:17 08:05:56 11° 280° (W) 08:07:22 437.345
BRITE-PL 31 Jan 08:09:25 08:13:56 24° 86° (E) 08:18:26 437.365/2234.400
Cubesat XI-IV 31 Jan 08:11:18 08:16:25 45° 297° (WNW) 08:21:30 437.490
YUBILEINY 31 Jan 08:13:31 08:21:34 42° 275° (W) 08:29:33 435.215
NANOSAT C BR1 31 Jan 08:18:04 08:18:44 10° 47° (NE) 08:19:33 145.865
PCSat 31 Jan 08:20:15 08:24:50 26° 350° (N) 08:29:24 145.827
ANTELSAT 31 Jan 08:24:17 08:27:24 18° 53° (NE) 08:30:35 437.575/2403.000
GONETS M04 31 Jan 08:25:44 08:28:38 12° 16° (NNE) 08:31:44
TIGRISAT 31 Jan 08:30:30 08:33:47 20° 55° (NE) 08:37:08 435.000
CUTE-I 31 Jan 08:30:48 08:35:40 35° 301° (WNW) 08:40:29 437.470
CANX-2 31 Jan 08:30:48 08:33:57 20° 89° (E) 08:37:10 2200.000
QB50P2 31 Jan 08:32:08 08:34:09 13° 50° (NE) 08:36:18 145.880/145.840
HO-68 31 Jan 08:34:00 08:40:08 30° 90° (E) 08:46:21 435.675
AAUSAT CUBESAT 2 31 Jan 08:35:16 08:37:25 14° 85° (E) 08:39:41 437.432
QB50P1 31 Jan 08:40:13 08:42:36 15° 52° (NE) 08:45:06 145.935-145.965
BUGSAT 1 31 Jan 08:41:17 08:42:57 12° 50° (NE) 08:44:45 437.445
RS-15 31 Jan 08:43:35 08:54:23 58° 345° (NNW) 09:05:34 29.354- 29.394
BEESAT 2 31 Jan 08:46:19 08:50:20 41° 28° (NNE) 08:54:19 435.950
AIST 2 31 Jan 08:53:22 08:57:18 33° 21° (NNE) 09:01:14 435.215
AO-7 31 Jan 08:53:31 08:59:10 20° 336° (NNW) 09:04:41 29.400- 29.500
CUTE 1.7 + AOD 2 31 Jan 08:54:18 08:58:02 29° 93° (E) 09:01:46 437.475
POLYITAN 1 31 Jan 08:55:42 08:58:45 19° 55° (NE) 09:01:53 437.675
BEESAT 3 31 Jan 08:58:13 09:02:19 48° 32° (NNE) 09:06:22 437.485
Oscar 11 31 Jan 09:04:17 09:06:41 15° 85° (E) 09:09:12 145.826/435.025
CINEMA 3 31 Jan 09:04:35 09:08:08 20° 86° (E) 09:11:41 145.822/145.860
POPSAT HIP 1 31 Jan 09:13:55 09:17:25 25° 59° (ENE) 09:21:01 437.405
DUCHIFAT 1 31 Jan 09:15:13 09:18:44 25° 59° (ENE) 09:22:19 145.980
SEEDS 31 Jan 09:21:42 09:25:45 44° 98° (E) 09:29:47 437.485
UNISAT 6 31 Jan 09:23:01 09:27:29 44° 66° (ENE) 09:31:56 437.425
DANDE 31 Jan 09:25:00 09:27:19 11° 343° (NNW) 09:29:24 436.750
GOMX 1 31 Jan 09:31:27 09:36:56 65° 101° (E) 09:42:11 467.674
DOVE 4 31 Jan 09:33:20 09:38:30 52° 98° (E) 09:43:26 437.250
UKube-1 31 Jan 09:40:32 09:43:32 18° 88° (E) 09:46:37 .
COMPASS 1 31 Jan 09:45:00 09:49:10 61° 101° (ESE) 09:53:17 437.405
HUMSAT D 31 Jan 09:46:23 09:47:48 12° 82° (E) 09:49:24 437.325/437.525
BRITE-PL 31 Jan 09:47:22 09:53:07 80° 288° (WNW) 09:58:40 437.365/2234.400
NANOSAT C BR1 31 Jan 09:49:35 09:53:42 46° 67° (ENE) 09:57:52 145.865
DELFI C3 31 Jan 09:52:16 09:55:51 30° 94° (E) 09:59:27 145.870
Cubesat XI-IV 31 Jan 09:52:54 09:55:23 13° 319° (NW) 09:57:44 437.490
SO-50 31 Jan 09:53:17 09:56:27 19° 115° (ESE) 09:59:47 436.795
ANTELSAT 31 Jan 09:58:54 10:03:38 83° 72° (ENE) 10:08:19 437.575/2403.000
ZACube-1 31 Jan 09:59:23 10:03:04 25° 90° (E) 10:06:43 437.345
CUBEBUG 2 31 Jan 10:01:25 10:05:39 34° 94° (E) 10:09:47 437.445
DX 1 31 Jan 10:03:33 10:07:23 29° 94° (E) 10:11:15 434.975-435.025
QB50P2 31 Jan 10:05:04 10:09:20 63° 70° (ENE) 10:13:38 145.880/145.840
PCSat 31 Jan 10:05:06 10:09:47 28° 15° (NNE) 10:14:30 145.827
TIGRISAT 31 Jan 10:05:18 10:10:02 89° 254° (WSW) 10:14:43 435.000
CANX-2 31 Jan 10:06:07 10:10:21 63° 290° (WNW) 10:14:31 2200.000
AAUSAT CUBESAT 2 31 Jan 10:09:35 10:13:47 90° 297° (WNW) 10:17:57 437.432
FUNcube-1 31 Jan 10:10:27 10:14:23 30° 93° (E) 10:18:16 145.935
CUTE-I 31 Jan 10:13:16 10:14:24 11° 323° (NW) 10:15:22 437.470
QB50P1 31 Jan 10:13:34 10:17:51 74° 72° (ENE) 10:22:11 145.935-145.965
BUGSAT 1 31 Jan 10:13:36 10:17:41 59° 69° (ENE) 10:21:51 437.445
YUBILEINY 31 Jan 10:13:57 10:16:01 11° 299° (WNW) 10:17:34 435.215
HO-68 31 Jan 10:21:28 10:28:39 79° 293° (WNW) 10:35:49 435.675
GONETS M04 31 Jan 10:22:32 10:29:36 27° 48° (NE) 10:36:49
Oscar 19 31 Jan 10:23:33 10:24:58 11° 40° (NE) 10:26:32 437.125/150
BEESAT 2 31 Jan 10:24:36 10:28:43 55° 230° (SW) 10:32:48 435.950
POLYITAN 1 31 Jan 10:29:53 10:34:13 81° 255° (WSW) 10:38:36 437.675
CUTE 1.7 + AOD 2 31 Jan 10:30:06 10:34:08 42° 294° (WNW) 10:38:08 437.475
AIST 2 31 Jan 10:32:01 10:36:23 86° 221° (SW) 10:40:40 435.215
50 SAT 31 Jan 10:35:56 10:39:13 23° 91° (E) 10:42:31 437.505
BEESAT 3 31 Jan 10:36:30 10:40:27 41° 233° (SW) 10:44:20 437.485
UWE-3 31 Jan 10:36:34 10:41:06 58° 100° (E) 10:45:28 435.000/436.395/437.385
AISAT 31 Jan 10:38:48 10:42:41 28° 93° (E) 10:46:37 437.250
Oscar 11 31 Jan 10:39:14 10:43:35 90° 290° (WNW) 10:47:54 145.826/435.025
CINEMA 3 31 Jan 10:41:03 10:46:01 77° 288° (WNW) 10:50:44 145.822/145.860
AO-7 31 Jan 10:44:32 10:48:58 16° 4° (N) 10:53:25 29.400- 29.500
AIST 1 31 Jan 10:47:08 10:50:34 24° 88° (E) 10:54:05
POPSAT HIP 1 31 Jan 10:48:50 10:53:05 57° 259° (W) 10:57:22 437.405
ESTCUBE 1 31 Jan 10:49:16 10:52:25 19° 87° (E) 10:55:41 437.505/2401.250
DUCHIFAT 1 31 Jan 10:50:08 10:54:21 55° 259° (W) 10:58:38 145.980
SEEDS 31 Jan 10:57:48 11:01:29 29° 298° (WNW) 11:05:06 437.485
RS-15 31 Jan 10:57:51 11:08:48 59° 17° (NNE) 11:20:13 29.354- 29.394
UNISAT 6 31 Jan 11:00:08 11:04:26 33° 266° (W) 11:08:39 437.425
VELOX 1 31 Jan 11:05:37 11:09:57 44° 98° (E) 11:14:17 145.980
CUBEBUG 1 31 Jan 11:07:18 11:10:55 24° 91° (E) 11:14:36 437.445
GOMX 1 31 Jan 11:09:57 11:14:43 31° 302° (WNW) 11:19:19 467.674
DOVE 4 31 Jan 11:11:21 11:16:07 35° 299° (WNW) 11:20:41 437.250
UKube-1 31 Jan 11:15:52 11:20:16 75° 289° (WNW) 11:24:38 .
HUMSAT D 31 Jan 11:20:13 11:24:30 74° 103° (ESE) 11:28:42 437.325/437.525
COMPASS 1 31 Jan 11:21:17 11:24:35 22° 301° (WNW) 11:27:48 437.405
NANOSAT C BR1 31 Jan 11:26:03 11:29:47 28° 267° (W) 11:33:31 145.865
BRITE-PL 31 Jan 11:26:37 11:30:54 22° 308° (NW) 11:35:00 437.365/2234.400
DELFI C3 31 Jan 11:27:24 11:31:13 39° 294° (WNW) 11:34:59 145.870
SO-50 31 Jan 11:31:41 11:36:22 80° 138° (SE) 11:41:13 436.795
ZACube-1 31 Jan 11:35:23 11:39:48 54° 292° (WNW) 11:44:04 437.345
ANTELSAT 31 Jan 11:37:47 11:41:04 18° 273° (W) 11:44:13 437.575/2403.000
CUBEBUG 2 31 Jan 11:38:06 11:42:28 41° 295° (WNW) 11:46:41 437.445
DX 1 31 Jan 11:39:36 11:43:52 47° 294° (WNW) 11:48:05 434.975-435.025
QB50P2 31 Jan 11:42:22 11:45:41 21° 271° (W) 11:48:58 145.880/145.840
CANX-2 31 Jan 11:43:36 11:45:34 13° 309° (NW) 11:47:24 2200.000
TIGRISAT 31 Jan 11:44:27 11:47:30 16° 275° (W) 11:50:24 435.000
AAUSAT CUBESAT 2 31 Jan 11:46:15 11:48:56 17° 305° (NW) 11:51:31 437.432
FUNcube-1 31 Jan 11:46:39 11:50:56 44° 294° (WNW) 11:55:05 145.935
PCSat 31 Jan 11:48:48 11:54:13 60° 39° (NE) 11:59:36 145.827
BUGSAT 1 31 Jan 11:50:22 11:53:36 21° 270° (W) 11:56:48 437.445
QB50P1 31 Jan 11:51:15 11:54:18 18° 272° (W) 11:57:15 145.935-145.965
Gurwin Techsat 1B 31 Jan 11:53:16 11:56:17 16° 46° (NE) 11:59:27 435.225
Oscar 19 31 Jan 11:58:20 12:03:07 39° 62° (ENE) 12:07:57 437.125/150
BEESAT 2 31 Jan 12:05:11 12:06:08 11° 249° (WSW) 12:06:53 435.950
POLYITAN 1 31 Jan 12:08:46 12:10:59 13° 276° (W) 12:13:02 437.675
HO-68 31 Jan 12:09:45 12:15:34 27° 316° (NW) 12:21:15 435.675
50 SAT 31 Jan 12:10:39 12:14:37 50° 292° (WNW) 12:18:32 437.505
AIST 2 31 Jan 12:11:27 12:14:28 18° 243° (WSW) 12:17:22 435.215
UWE-3 31 Jan 12:13:34 12:17:22 26° 301° (WNW) 12:21:02 435.000/436.395/437.385
AISAT 31 Jan 12:15:10 12:19:35 50° 293° (WNW) 12:23:57 437.250
Oscar 11 31 Jan 12:16:21 12:19:15 17° 306° (NW) 12:22:03 145.826/435.025
CINEMA 3 31 Jan 12:19:11 12:22:30 18° 309° (NW) 12:25:38 145.822/145.860
SPROUT 31 Jan 12:19:17 12:23:13 32° 95° (E) 12:27:08 437.525
GONETS M04 31 Jan 12:19:22 12:28:08 78° 75° (ENE) 12:36:52
ITAMSAT 1 31 Jan 12:20:15 12:24:33 28° 56° (NE) 12:28:58 435.822/435.867
AIST 1 31 Jan 12:23:52 12:28:01 49° 288° (WNW) 12:32:13
ESTCUBE 1 31 Jan 12:25:20 12:29:54 76° 288° (WNW) 12:34:25 437.505/2401.250
AO-7 31 Jan 12:32:47 12:38:58 24° 32° (NNE) 12:45:15 29.400- 29.500
VELOX 1 31 Jan 12:42:26 12:46:28 32° 299° (WNW) 12:50:28 145.980
SWISSCUBE 31 Jan 12:42:47 12:44:58 13° 82° (E) 12:47:20 437.505
CUBEBUG 1 31 Jan 12:43:16 12:47:40 57° 291° (WNW) 12:52:01 437.445
TISAT 1 31 Jan 12:48:08 12:52:23 53° 101° (E) 12:56:37 437.305
DOVE 4 31 Jan 12:52:07 12:52:31 10° 321° (NW) 12:52:44 437.250
UKube-1 31 Jan 12:53:10 12:55:48 16° 309° (NW) 12:58:20 .
DANDE 31 Jan 12:56:41 13:01:50 20° 38° (NE) 13:06:21 436.750
HUMSAT D 31 Jan 12:56:44 12:59:53 20° 304° (WNW) 13:02:57 437.325/437.525
BEESAT 31 Jan 12:57:35 13:00:32 16° 85° (E) 13:03:35 436.000
ITUPSAT 1 31 Jan 13:02:51 13:06:01 18° 86° (E) 13:09:18 437.325
RS-15 31 Jan 13:10:53 13:22:08 82° 226° (SW) 13:33:52 29.354- 29.394
SO-50 31 Jan 13:12:54 13:17:21 38° 339° (NNW) 13:21:55 436.795
CUSAT 1 31 Jan 13:13:27 13:18:46 23° 45° (NE) 13:23:16 437.405
ZACube-1 31 Jan 13:13:28 13:15:18 12° 312° (NW) 13:16:59 437.345
CUBEBUG 2 31 Jan 13:17:35 13:18:05 10° 316° (NW) 13:18:25 437.445
DX 1 31 Jan 13:17:57 13:19:12 11° 314° (NW) 13:20:19 434.975-435.025
FUNcube-1 31 Jan 13:25:26 13:26:17 10° 314° (NW) 13:26:59 145.935
Gurwin Techsat 1B 31 Jan 13:30:09 13:35:21 58° 67° (ENE) 13:40:36 435.225
PCSat 31 Jan 13:32:28 13:37:31 38° 241° (WSW) 13:42:29 145.827
HORYU 2 31 Jan 13:36:16 13:39:57 26° 59° (ENE) 13:43:43 437.375
Oscar 19 31 Jan 13:37:29 13:42:28 45° 262° (W) 13:47:28 437.125/150
50 SAT 31 Jan 13:48:14 13:48:54 10° 312° (NW) 13:49:26 437.505
AISAT 31 Jan 13:53:34 13:55:19 12° 313° (NW) 13:56:54 437.250
SPROUT 31 Jan 13:55:18 13:59:26 41° 295° (WNW) 14:03:31 437.525
HO-68 31 Jan 13:58:20 14:01:04 12° 341° (NNW) 14:03:40 435.675
ITAMSAT 1 31 Jan 13:58:33 14:03:44 69° 256° (WSW) 14:08:58 435.822/435.867
ESTCUBE 1 31 Jan 14:03:18 14:06:09 16° 308° (NW) 14:08:53 437.505/2401.250
STARS 31 Jan 14:05:50 14:06:53 11° 81° (E) 14:08:10 437.465
KKS-1 31 Jan 14:16:06 14:19:16 19° 88° (E) 14:22:32 437.445
GONETS M04 31 Jan 14:16:49 14:24:20 33° 279° (W) 14:31:40
SWISSCUBE 31 Jan 14:19:01 14:23:49 72° 104° (ESE) 14:28:37 437.505
CUBEBUG 1 31 Jan 14:21:12 14:23:14 13° 311° (NW) 14:25:09 437.445
AO-7 31 Jan 14:22:11 14:30:16 56° 56° (NE) 14:38:24 29.400- 29.500
TISAT 1 31 Jan 14:24:22 14:28:00 26° 300° (WNW) 14:31:33 437.305
BEESAT 31 Jan 14:34:21 14:39:10 87° 108° (ESE) 14:43:59 436.000
ITUPSAT 1 31 Jan 14:39:48 14:44:38 87° 286° (WNW) 14:49:27 437.325
DANDE 31 Jan 14:40:01 14:47:16 60° 67° (ENE) 14:52:42 436.750
JAS-2 31 Jan 14:45:52 14:50:09 27° 56° (NE) 14:54:31 435.910
